Location: Unspecified
(0.0000°N, 0.0000°E)
Time: 02:58:31
(UTC+00:00)

BlueWalker 3 - Pass Details

Date: 17 July 2024
Orbit: 480 x 491 km, 53.2° (Epoch: 24 July)

Event Time Altitude Azimuth Distance (km) Brightness Sun altitude
Rises 19:15:27 0° 338° (NNW) 2,516 6.2 -16.1°
Reaches altitude 10° 19:17:42 10° 347° (NNW) 1,640 5.0 -16.6°
Maximum altitude 19:21:10 38° 56° (NE) 740 2.5 -17.4°
Enters shadow 19:21:36 36° 75° (ENE) 763 2.4 -17.5°
